Weather History for Destin, FL

Change the Weather History Date:

Wednesday, January 30, 2013

  Actual Average Record
Temperature  
Mean Temperature 63 °F -  
Max Temperature 75 °F 58 °F 75 °F (2013)
Min Temperature 48 °F 44 °F 25 °F (2014)
Degree Days  
Heating Degree Days 2    
Growing Degree Days 13 (Base 50)    
Moisture  
Dew Point 62 °F    
Average Humidity 84    
Maximum Humidity 94    
Minimum Humidity 54    
Precipitation  
Precipitation 0.41 in - - ()
Sea Level Pressure  
Sea Level Pressure 29.81 in    
Wind  
Wind Speed 12 mph (SSW)    
Max Wind Speed 18 mph    
Max Gust Speed 38 mph    
Visibility 6 miles    
Events Rain    
Averages and records for this station are not official NWS values.
T = Trace of Precipitation, MM = Missing Value Source: NWS Daily Summary

Daily Weather History Graph

Daily Weather History Graph

Search for Another Location

Airport:

Trip Planner

Search our weather history database for the weather conditions in past years. The results will help you decide how hot, cold, wet, or windy it might be!

Date:

Astronomy

Jan. 30, 2013 Rise Set
Actual Time 6:37 AM CST 5:21 PM CST
Civil Twilight 6:12 AM CST 5:46 PM CST
Nautical Twilight 5:43 AM CST 6:15 PM CST
Astronomical Twilight 5:15 AM CST 6:43 PM CST
Moon 8:57 PM CST (1/30) 8:24 AM CST (1/30)
Length of Visible Light 11h 33m
Length of Day
10h 43m
Waning Gibbous, 87% of the Moon is Illuminated
Jan 30
Waning Gibbous
Feb 3
Last Quarter
Feb 10
New
Feb 17
First Quarter
Feb 25
Full

Hourly Weather History & Observations

Time (CST) Temp. Dew Point Humidity Pressure Visibility Wind Dir Wind Speed Gust Speed Precip Events Conditions
12:53 AM 70.0 °F 68.0 °F 93% 29.92 in 6.0 mi SSE 10.4 mph - N/A   Overcast
1:19 AM 69.8 °F 68.0 °F 94% 29.92 in 5.0 mi SSE 11.5 mph 17.3 mph N/A   Overcast
1:53 AM 70.0 °F 68.0 °F 93% 29.91 in 5.0 mi SSE 12.7 mph 20.7 mph N/A   Overcast
2:53 AM 70.0 °F 68.0 °F 93% 29.90 in 6.0 mi SSE 12.7 mph 23.0 mph N/A   Overcast
3:53 AM 71.1 °F 68.0 °F 90% 29.88 in 6.0 mi South 12.7 mph 21.9 mph N/A   Overcast
4:53 AM 71.1 °F 68.0 °F 90% 29.84 in 7.0 mi SSE 15.0 mph 27.6 mph N/A   Overcast
5:21 AM 71.6 °F 68.0 °F 88% 29.83 in 7.0 mi SSE 13.8 mph 28.8 mph N/A   Overcast
5:28 AM 71.6 °F 68.0 °F 88% 29.83 in 7.0 mi SSE 12.7 mph 24.2 mph N/A   Overcast
5:53 AM 71.1 °F 68.0 °F 90% 29.81 in 7.0 mi SSE 13.8 mph 24.2 mph N/A   Overcast
6:53 AM 71.1 °F 68.0 °F 90% 29.83 in 7.0 mi South 13.8 mph 27.6 mph N/A   Overcast
7:53 AM 72.0 °F 68.0 °F 87% 29.81 in 6.0 mi SSE 17.3 mph 32.2 mph N/A   Overcast
8:30 AM 71.6 °F 68.0 °F 88% 29.80 in 6.0 mi South 13.8 mph 31.1 mph N/A   Overcast
8:51 AM 71.6 °F 68.0 °F 88% 29.81 in 6.0 mi South 12.7 mph 28.8 mph N/A   Overcast
8:53 AM 72.0 °F 68.0 °F 87% 29.81 in 6.0 mi South 12.7 mph 28.8 mph N/A   Overcast
9:53 AM 73.0 °F 69.1 °F 87% 29.81 in 6.0 mi South 11.5 mph 21.9 mph N/A   Overcast
10:17 AM 73.4 °F 69.8 °F 88% 29.80 in 6.0 mi South 11.5 mph 26.5 mph N/A   Overcast
10:53 AM 73.0 °F 69.1 °F 87% 29.79 in 6.0 mi South 15.0 mph 32.2 mph N/A   Overcast
11:53 AM 73.9 °F 69.1 °F 85% 29.77 in 6.0 mi South 18.4 mph 34.5 mph N/A   Haze
12:53 PM 75.0 °F 69.1 °F 82% 29.72 in 6.0 mi South 17.3 mph 31.1 mph 0.00 in   Haze
1:53 PM 73.0 °F 69.1 °F 87% 29.71 in 3.0 mi SSW 11.5 mph 34.5 mph 0.01 in Rain Light Rain
1:56 PM 71.6 °F 69.8 °F 94% 29.70 in 1.5 mi South 12.7 mph 28.8 mph 0.07 in Rain Heavy Rain
2:06 PM 71.6 °F 69.8 °F 94% 29.70 in 0.8 mi SSW 10.4 mph 29.9 mph 0.17 in Rain Rain
2:11 PM 71.6 °F 69.8 °F 94% 29.69 in 2.5 mi South 15.0 mph 23.0 mph 0.17 in Rain Light Rain
2:13 PM 71.6 °F 69.8 °F 94% 29.69 in 3.0 mi South 13.8 mph 25.3 mph 0.17 in   Overcast
2:24 PM 71.6 °F 69.8 °F 94% 29.69 in 3.0 mi SSW 15.0 mph 27.6 mph 0.17 in Rain Light Rain
2:34 PM 71.6 °F 69.8 °F 94% 29.67 in 1.5 mi South 13.8 mph 28.8 mph 0.22 in Rain Heavy Rain
2:47 PM 66.2 °F 64.4 °F 94% 29.72 in 1.2 mi WSW 15.0 mph 38.0 mph 0.37 in Rain Rain
2:50 PM 66.2 °F 62.6 °F 88% 29.72 in 1.2 mi WSW 15.0 mph 38.0 mph 0.39 in Rain Heavy Rain
2:53 PM 66.0 °F 63.0 °F 90% 29.72 in 1.2 mi WSW 10.4 mph 26.5 mph 0.39 in Rain Heavy Rain
2:59 PM 66.2 °F 62.6 °F 88% 29.73 in 3.0 mi WSW 9.2 mph 21.9 mph 0.00 in Rain Light Rain
3:17 PM 64.4 °F 60.8 °F 88% 29.75 in 10.0 mi WNW 10.4 mph 24.2 mph 0.00 in   Overcast
3:24 PM 62.6 °F 59.0 °F 88% 29.76 in 10.0 mi WNW 10.4 mph 18.4 mph 0.00 in   Overcast
3:36 PM 62.6 °F 55.4 °F 77% 29.77 in 10.0 mi West 8.1 mph 24.2 mph 0.00 in Rain Light Rain
3:53 PM 61.0 °F 55.9 °F 83% 29.79 in 10.0 mi NW 11.5 mph 17.3 mph 0.00 in Rain Light Rain
4:53 PM 57.0 °F 45.0 °F 64% 29.83 in 10.0 mi WNW 8.1 mph - 0.00 in   Overcast
5:53 PM 55.9 °F 44.1 °F 64% 29.83 in 10.0 mi Variable 4.6 mph - 0.00 in   Overcast
6:53 PM 57.0 °F 46.9 °F 69% 29.88 in 10.0 mi Variable 5.8 mph - 0.00 in   Overcast
7:53 PM 57.9 °F 46.9 °F 67% 29.91 in 10.0 mi Variable 5.8 mph - 0.01 in Rain Light Rain
8:53 PM 57.0 °F 44.1 °F 62% 29.95 in 10.0 mi WNW 9.2 mph 18.4 mph 0.00 in   Partly Cloudy
9:53 PM 54.0 °F 37.9 °F 55% 30.00 in 10.0 mi WNW 10.4 mph 24.2 mph N/A   Clear
10:53 PM 51.1 °F 37.0 °F 59% 30.04 in 10.0 mi NW 18.4 mph 31.1 mph N/A   Clear
11:53 PM 48.9 °F 33.1 °F 54% 30.07 in 10.0 mi NW 16.1 mph 26.5 mph N/A   Clear